Regional Weather Roundup
Issued by NWS

Home | Current Version | Previous Version | Text Only | Print | Product List | Glossary On
Versions: 1 2 3 4 5 6 7 8 9 10 11 12 13 14 15 16 17 18 19 20 21 22 23 24 25 26 27 28 29 30 31 32 33 34 35 36 37 38 39 40 41 42 43 44 45 46 47 48 49 50
000
ASUS43 KLSX 261457
RWRMO

WEATHER SUMMARY FOR MISSOURI
NATIONAL WEATHER SERVICE SPRINGFIELD MO
1000 AM CDT MON JUN 26 2017

NOTE: "FAIR" INDICATES FEW OR NO CLOUDS BELOW 12,000 FEET WITH NO
       SIGNIFICANT WEATHER AND/OR OBSTRUCTIONS TO VISIBILITY.
       CURRENT SKY AND/OR WEATHER CONDITIONS ARE NOT AVAILABLE FOR
       CHILLICOTHE AND FARMINGTON.

MOZ001>031-035>038-043-044-053-054-261600-
...NORTHERN AND WESTERN MISSOURI...

CITY           SKY/WX    TMP DP  RH WIND       PRES   REMARKS
KANSAS CTY INT RAIN      58  55  90 NE13      30.25R FOG
LEE`S SUMMIT   PTSUNNY   68  56  65 N5        30.22S
ST JOSEPH      CLOUDY    60  57  89 NE9       30.25S
CHILLICOTHE      N/A     60  54  80 N7        30.26S

$$
MOZ066>068-077>081-088>096-101>105-261600-
...SOUTHWEST MISSOURI...

CITY           SKY/WX    TMP DP  RH WIND       PRES   REMARKS
SPRINGFIELD    CLOUDY    70  61  73 CALM      30.22F
JOPLIN         CLOUDY    73  62  68 E6        30.22S
BRANSON        PTSUNNY   72  59  64 SE9       30.25F

$$
MOZ032>034-039>042-045>050-055>058-069>072-261600-
...CENTRAL MISSOURI...

CITY           SKY/WX    TMP DP  RH WIND       PRES   REMARKS
COLUMBIA       NOT AVBL
JEFFERSON CITY SUNNY     70  53  54 SE6       30.22R
ROLLA          SUNNY     71  51  49 VRB5      30.22S
SEDALIA        SUNNY     73  56  54 CALM      30.23R
WARRENSBURG    MOSUNNY   70  55  60 N3        30.23R

$$
MOZ051-052-059>065-261600-
...EAST CENTRAL MISSOURI...

CITY           SKY/WX    TMP DP  RH WIND       PRES   REMARKS
ST LOUIS INTL  MOSUNNY   77  48  35 SW5       30.22S

$$
MOZ072>076-082>087-097>100-106>115-261600-
...SOUTH CENTRAL AND SOUTHEAST MISSOURI...

CITY           SKY/WX    TMP DP  RH WIND       PRES   REMARKS
CAPE GIRARDEAU CLOUDY    70  57  63 SW3       30.23F
POPLAR BLUFF   CLOUDY    67  62  84 CALM      30.23F
WEST PLAINS    CLOUDY    64  61  90 CALM      30.25F

$$


USA.gov is the U.S. government's official web portal to all federal, state and local government web resources and services.